COSMOS 2513             
1 41121U 15075A   19261.43016520 -.00000142  00000-0  00000+0 0  9994
2 41121   0.0526 114.5022 0001519  57.4071  60.2490  1.00271411 13898
BREEZE-M R/B            
1 41122U 15075B   19260.09064090 -.00000207  00000-0  00000-0 0  9994
2 41122   2.8962  83.8445 0314968  86.9976 277.1199  1.04641198 14406
BREEZE-M DEB            
1 41543U 15075D   19258.23446378 -.00000097  00000-0  00000+0 0  9993
2 41543   2.8567  84.8164 0248923  99.7353 263.6259  1.05308156 14098
BREEZE-M DEB            
1 41544U 15075E   19260.15466099 -.00000149  00000-0  00000-0 0  9999
2 41544   2.8161  87.4287 0292482  98.0663 265.7953  1.05680795 14185
BREEZE-M DEB            
1 41546U 15075G   19254.38893788 -.00000137  00000-0  00000+0 0  9994
2 41546   2.8108  90.2875 0238051  83.3674 279.7825  1.04638447 13968
BREEZE-M DEB            
1 41547U 15075H   19252.76008101 -.00000083  00000-0  00000-0 0  9993
2 41547   2.8452  91.0350 0262683  58.8376 304.0951  1.03190281 13760
BREEZE-M DEB            
1 41548U 15075J   19259.84719607 -.00000129  00000-0  00000-0 0  9991
2 41548   3.2026  73.3737 0377548  67.9865 296.4345  1.02192351 14071